Time,TemperatureF,DewpointF,PressureIn,WindDirection,WindDirectionDegrees,WindSpeedMPH,WindSpeedGustMPH,Humidity,HourlyPrecipIn,Conditions,Clouds,dailyrainin,SoftwareType,DateUTC
2013-04-03 00:06:00,30.8,14.0,30.12,West,281,1.0,4.0,51,0.00,,,0.00,weatherlink.com 1.10,2013-04-03 04:06:00,
2013-04-03 00:21:00,30.8,15.0,30.12,WNW,298,0.0,2.0,53,0.00,,,0.00,weatherlink.com 1.10,2013-04-03 04:21:00,
2013-04-03 00:36:00,30.3,16.0,30.13,WNW,291,0.0,2.0,55,0.00,,,0.00,weatherlink.com 1.10,2013-04-03 04:36:00,
2013-04-03 00:51:00,29.6,16.0,30.12,WNW,291,0.0,1.0,56,0.00,,,0.00,weatherlink.com 1.10,2013-04-03 04:51:00,
2013-04-03 02:06:00,27.8,16.0,30.13,WNW,291,0.0,0.0,62,0.00,,,0.00,weatherlink.com 1.10,2013-04-03 06:06:00,
2013-04-03 02:21:00,27.2,17.0,30.12,WNW,291,0.0,1.0,65,0.00,,,0.00,weatherlink.com 1.10,2013-04-03 06:21:00,
2013-04-03 02:36:00,26.7,16.0,30.13,WNW,291,0.0,0.0,64,0.00,,,0.00,weatherlink.com 1.10,2013-04-03 06:36:00,
2013-04-03 02:51:00,26.3,17.0,30.13,WNW,291,0.0,0.0,68,0.00,,,0.00,weatherlink.com 1.10,2013-04-03 06:51:00,
2013-04-03 03:06:00,25.9,17.0,30.14,WNW,291,0.0,1.0,68,0.00,,,0.00,weatherlink.com 1.10,2013-04-03 07:06:00,
2013-04-03 03:36:00,25.5,16.0,30.13,WNW,291,0.0,1.0,68,0.00,,,0.00,weatherlink.com 1.10,2013-04-03 07:36:00,
2013-04-03 03:51:00,25.7,16.0,30.13,WNW,291,0.0,1.0,67,0.00,,,0.00,weatherlink.com 1.10,2013-04-03 07:51:00,
2013-04-03 04:06:00,26.2,16.0,30.14,WNW,291,0.0,2.0,65,0.00,,,0.00,weatherlink.com 1.10,2013-04-03 08:06:00,
2013-04-03 04:21:00,27.6,16.0,30.14,WNW,300,3.0,3.0,61,0.00,,,0.00,weatherlink.com 1.10,2013-04-03 08:21:00,
2013-04-03 04:36:00,28.9,16.0,30.14,NW,307,1.0,4.0,58,0.00,,,0.00,weatherlink.com 1.10,2013-04-03 08:36:00,
2013-04-03 04:51:00,29.7,16.0,30.14,WNW,292,2.0,5.0,56,0.00,,,0.00,weatherlink.com 1.10,2013-04-03 08:51:00,
2013-04-03 05:06:00,30.0,15.0,30.14,WNW,302,2.0,6.0,55,0.00,,,0.00,weatherlink.com 1.10,2013-04-03 09:06:00,
2013-04-03 05:21:00,30.3,16.0,30.15,NW,305,3.0,6.0,55,0.00,,,0.00,weatherlink.com 1.10,2013-04-03 09:21:00,
2013-04-03 05:36:00,30.2,15.0,30.15,NW,304,0.0,3.0,54,0.00,,,0.00,weatherlink.com 1.10,2013-04-03 09:36:00,
2013-04-03 05:51:00,28.6,20.0,30.16,East,84,0.0,2.0,70,0.00,,,0.00,weatherlink.com 1.10,2013-04-03 09:51:00,
2013-04-03 06:06:00,27.4,18.0,30.16,East,84,0.0,0.0,69,0.00,,,0.00,weatherlink.com 1.10,2013-04-03 10:06:00,
2013-04-03 06:36:00,25.5,17.0,30.16,East,84,0.0,1.0,69,0.00,,,0.00,weatherlink.com 1.10,2013-04-03 10:36:00,
2013-04-03 06:51:00,25.1,16.0,30.17,NNW,338,0.0,2.0,69,0.00,,,0.00,weatherlink.com 1.10,2013-04-03 10:51:00,
2013-04-03 07:07:00,26.2,17.0,30.18,WNW,302,1.0,3.0,67,0.00,,,0.00,weatherlink.com 1.10,2013-04-03 11:07:00,
2013-04-03 07:21:00,28.4,16.0,30.18,NW,304,4.0,5.0,60,0.00,,,0.00,weatherlink.com 1.10,2013-04-03 11:21:00,
2013-04-03 07:37:00,30.7,16.0,30.18,WNW,300,4.0,6.0,55,0.00,,,0.00,weatherlink.com 1.10,2013-04-03 11:37:00,
2013-04-03 07:52:00,33.1,17.0,30.18,WNW,296,2.0,3.0,53,0.00,,,0.00,weatherlink.com 1.10,2013-04-03 11:52:00,
2013-04-03 08:07:00,36.4,19.0,30.18,NW,304,0.0,2.0,50,0.00,,,0.00,weatherlink.com 1.10,2013-04-03 12:07:00,
2013-04-03 08:22:00,39.8,20.0,30.18,NW,305,0.0,2.0,45,0.00,,,0.00,weatherlink.com 1.10,2013-04-03 12:22:00,
2013-04-03 08:37:00,40.9,19.0,30.18,WNW,288,0.0,6.0,42,0.00,,,0.00,weatherlink.com 1.10,2013-04-03 12:37:00,
2013-04-03 08:52:00,41.3,20.0,30.19,WNW,295,4.0,6.0,42,0.00,,,0.00,weatherlink.com 1.10,2013-04-03 12:52:00,
2013-04-03 09:07:00,42.1,20.0,30.19,WNW,282,2.0,7.0,41,0.00,,,0.00,weatherlink.com 1.10,2013-04-03 13:07:00,
2013-04-03 09:22:00,42.4,21.0,30.19,WNW,300,4.0,9.0,42,0.00,,,0.00,weatherlink.com 1.10,2013-04-03 13:22:00,
2013-04-03 09:37:00,42.3,18.0,30.20,NW,307,7.0,11.0,38,0.00,,,0.00,weatherlink.com 1.10,2013-04-03 13:37:00,
2013-04-03 09:52:00,42.7,20.0,30.20,NW,314,4.0,11.0,41,0.00,,,0.00,weatherlink.com 1.10,2013-04-03 13:52:00,
2013-04-03 10:07:00,42.4,19.0,30.21,NW,304,3.0,13.0,40,0.00,,,0.00,weatherlink.com 1.10,2013-04-03 14:07:00,
2013-04-03 10:22:00,43.0,18.0,30.21,WNW,290,9.0,12.0,36,0.00,,,0.00,weatherlink.com 1.10,2013-04-03 14:22:00,
2013-04-03 10:37:00,43.1,18.0,30.21,WNW,292,5.0,14.0,37,0.00,,,0.00,weatherlink.com 1.10,2013-04-03 14:37:00,
2013-04-03 10:52:00,43.8,18.0,30.22,WNW,300,4.0,19.0,36,0.00,,,0.00,weatherlink.com 1.10,2013-04-03 14:52:00,
2013-04-03 11:07:00,44.3,17.0,30.22,WNW,290,6.0,17.0,34,0.00,,,0.00,weatherlink.com 1.10,2013-04-03 15:07:00,
2013-04-03 11:22:00,44.9,18.0,30.22,WNW,283,8.0,14.0,34,0.00,,,0.00,weatherlink.com 1.10,2013-04-03 15:22:00,
2013-04-03 11:37:00,45.9,20.0,30.21,West,271,7.0,14.0,36,0.00,,,0.00,weatherlink.com 1.10,2013-04-03 15:37:00,
2013-04-03 11:52:00,45.7,20.0,30.21,WNW,293,6.0,11.0,36,0.00,,,0.00,weatherlink.com 1.10,2013-04-03 15:52:00,
2013-04-03 12:07:00,46.3,19.0,30.21,WNW,298,8.0,10.0,34,0.00,,,0.00,weatherlink.com 1.10,2013-04-03 16:07:00,
2013-04-03 12:22:00,45.7,18.0,30.21,WNW,290,6.0,17.0,33,0.00,,,0.00,weatherlink.com 1.10,2013-04-03 16:22:00,
2013-04-03 12:37:00,47.1,18.0,30.19,West,268,3.0,13.0,32,0.00,,,0.00,weatherlink.com 1.10,2013-04-03 16:37:00,
2013-04-03 12:52:00,46.9,20.0,30.19,WNW,289,8.0,14.0,35,0.00,,,0.00,weatherlink.com 1.10,2013-04-03 16:52:00,
2013-04-03 13:07:00,47.2,17.0,30.18,WNW,302,12.0,21.0,30,0.00,,,0.00,weatherlink.com 1.10,2013-04-03 17:07:00,
2013-04-03 13:22:00,47.3,16.0,30.17,West,269,15.0,16.0,29,0.00,,,0.00,weatherlink.com 1.10,2013-04-03 17:22:00,
2013-04-03 13:37:00,47.3,17.0,30.16,West,273,8.0,14.0,30,0.00,,,0.00,weatherlink.com 1.10,2013-04-03 17:37:00,
2013-04-03 13:53:00,47.3,14.0,30.16,West,281,7.0,19.0,26,0.00,,,0.00,weatherlink.com 1.10,2013-04-03 17:53:00,
2013-04-03 14:08:00,48.1,16.0,30.16,WNW,296,8.0,18.0,28,0.00,,,0.00,weatherlink.com 1.10,2013-04-03 18:08:00,
2013-04-03 14:23:00,48.5,16.0,30.16,WNW,299,3.0,21.0,27,0.00,,,0.00,weatherlink.com 1.10,2013-04-03 18:23:00,
2013-04-03 14:38:00,49.1,16.0,30.16,WNW,290,2.0,16.0,27,0.00,,,0.00,weatherlink.com 1.10,2013-04-03 18:38:00,
2013-04-03 14:53:00,49.1,17.0,30.16,WNW,301,2.0,16.0,28,0.00,,,0.00,weatherlink.com 1.10,2013-04-03 18:53:00,
2013-04-03 15:08:00,49.8,16.0,30.16,NW,306,7.0,14.0,26,0.00,,,0.00,weatherlink.com 1.10,2013-04-03 19:08:00,
2013-04-03 15:23:00,48.4,16.0,30.16,West,277,6.0,19.0,28,0.00,,,0.00,weatherlink.com 1.10,2013-04-03 19:23:00,
2013-04-03 15:38:00,48.3,14.0,30.17,SSW,205,4.0,18.0,25,0.00,,,0.00,weatherlink.com 1.10,2013-04-03 19:38:00,
2013-04-03 15:53:00,47.9,13.0,30.17,NW,304,7.0,23.0,25,0.00,,,0.00,weatherlink.com 1.10,2013-04-03 19:53:00,
2013-04-03 16:08:00,46.2,13.0,30.18,West,275,10.0,22.0,26,0.00,,,0.00,weatherlink.com 1.10,2013-04-03 20:08:00,
2013-04-03 16:23:00,46.2,14.0,30.19,North,5,2.0,19.0,27,0.00,,,0.00,weatherlink.com 1.10,2013-04-03 20:23:00,
2013-04-03 16:38:00,46.2,13.0,30.20,WNW,303,10.0,21.0,26,0.00,,,0.00,weatherlink.com 1.10,2013-04-03 20:38:00,
2013-04-03 16:53:00,46.0,13.0,30.21,WNW,294,5.0,18.0,26,0.00,,,0.00,weatherlink.com 1.10,2013-04-03 20:53:00,
2013-04-03 17:23:00,45.7,12.0,30.23,WNW,292,12.0,18.0,26,0.00,,,0.00,weatherlink.com 1.10,2013-04-03 21:23:00,
2013-04-03 17:38:00,45.3,11.0,30.23,WNW,292,2.0,13.0,25,0.00,,,0.00,weatherlink.com 1.10,2013-04-03 21:38:00,
2013-04-03 17:53:00,44.4,13.0,30.24,WNW,292,5.0,15.0,28,0.00,,,0.00,weatherlink.com 1.10,2013-04-03 21:53:00,
2013-04-03 18:08:00,44.5,12.0,30.25,WNW,303,4.0,13.0,27,0.00,,,0.00,weatherlink.com 1.10,2013-04-03 22:08:00,
2013-04-03 18:23:00,44.7,13.0,30.26,WNW,288,4.0,12.0,28,0.00,,,0.00,weatherlink.com 1.10,2013-04-03 22:23:00,
2013-04-03 18:38:00,43.7,13.0,30.26,WNW,285,4.0,17.0,29,0.00,,,0.00,weatherlink.com 1.10,2013-04-03 22:38:00,
2013-04-03 18:53:00,43.2,14.0,30.27,WNW,294,10.0,13.0,30,0.00,,,0.00,weatherlink.com 1.10,2013-04-03 22:53:00,
2013-04-03 19:08:00,42.0,15.0,30.28,WNW,287,5.0,14.0,33,0.00,,,0.00,weatherlink.com 1.10,2013-04-03 23:08:00,
2013-04-03 19:23:00,40.6,16.0,30.29,West,281,15.0,17.0,37,0.00,,,0.00,weatherlink.com 1.10,2013-04-03 23:23:00,
2013-04-03 19:38:00,39.3,18.0,30.30,WNW,301,7.0,14.0,42,0.00,,,0.00,weatherlink.com 1.10,2013-04-03 23:38:00,
2013-04-03 19:53:00,38.0,18.0,30.29,West,276,9.0,11.0,45,0.00,,,0.00,weatherlink.com 1.10,2013-04-03 23:53:00,
2013-04-03 20:23:00,36.6,18.0,30.29,WSW,257,3.0,10.0,48,0.00,,,0.00,weatherlink.com 1.10,2013-04-04 00:23:00,
2013-04-03 20:38:00,36.0,19.0,30.30,WNW,296,4.0,11.0,50,0.00,,,0.00,weatherlink.com 1.10,2013-04-04 00:38:00,
2013-04-03 20:53:00,35.4,19.0,30.30,WNW,283,3.0,7.0,52,0.00,,,0.00,weatherlink.com 1.10,2013-04-04 00:53:00,
2013-04-03 21:08:00,34.8,19.0,30.31,West,273,1.0,6.0,53,0.00,,,0.00,weatherlink.com 1.10,2013-04-04 01:08:00,
2013-04-03 21:23:00,34.3,19.0,30.32,WNW,299,0.0,3.0,54,0.00,,,0.00,weatherlink.com 1.10,2013-04-04 01:23:00,
2013-04-03 21:38:00,33.4,19.0,30.32,WNW,293,3.0,4.0,56,0.00,,,0.00,weatherlink.com 1.10,2013-04-04 01:38:00,
2013-04-03 21:53:00,32.8,19.0,30.32,WNW,286,2.0,4.0,57,0.00,,,0.00,weatherlink.com 1.10,2013-04-04 01:53:00,
2013-04-03 22:23:00,32.3,18.0,30.31,WNW,301,2.0,5.0,57,0.00,,,0.00,weatherlink.com 1.10,2013-04-04 02:23:00,
2013-04-03 22:53:00,31.3,18.0,30.32,WNW,290,0.0,0.0,58,0.00,,,0.00,weatherlink.com 1.10,2013-04-04 02:53:00,
2013-04-03 23:08:00,30.3,18.0,30.32,WNW,290,0.0,0.0,60,0.00,,,0.00,weatherlink.com 1.10,2013-04-04 03:08:00,
2013-04-03 23:38:00,28.6,18.0,30.34,WNW,301,0.0,2.0,64,0.00,,,0.00,weatherlink.com 1.10,2013-04-04 03:38:00,
2013-04-03 23:53:00,28.2,17.0,30.34,WNW,297,0.0,2.0,63,0.00,,,0.00,weatherlink.com 1.10,2013-04-04 03:53:00,